Lid_Strength_Index
2 3 3 3 3 3 3 3 3 3 3 3 3 3 2 2 3 5 8 5 3 -0 -1 6 9 9 8 9 9 9 13 14 12 11 9 8 9 8 7 9 7 6 7 5 5
3 3 3 3 3 3 3 3 3 3 3 3 3 3 3 2 6 7 4 0 -1 -2 6 9 11 10 12 10 10 11 14 13 10 9 9 8 9 8 9 9 9 7 5 5 6
3 3 3 3 3 3 3 3 3 3 3 3 3 3 3 3 7 5 -1 -1 -2 -2 7 7 6 7 13 12 11 12 13 11 9 8 8 8 9 7 9 10 8 8 7 5 6
3 3 3 3 3 3 3 3 3 3 3 3 3 3 2 5 11 6 -2 -2 -2 3 6 5 7 12 14 13 12 14 11 10 9 8 9 9 7 8 9 9 7 6 6 5 6
3 3 3 3 3 3 3 3 3 3 3 3 3 2 5 10 8 4 -2 -2 2 5 5 6 8 10 13 13 12 14 12 11 10 10 10 8 9 8 8 8 7 6 6 6 5
3 3 3 3 3 3 3 3 3 3 3 3 3 2 7 14 8 2 2 2 5 6 5 6 7 8 11 12 12 11 11 11 11 10 11 10 10 10 9 7 8 7 7 7 6
4 4 4 4 4 3 3 3 3 2 3 3 2 3 7 11 5 1 3 6 5 4 5 5 6 9 10 11 11 11 13 11 11 10 10 10 12 11 8 7 8 8 8 8 7
3 4 4 4 4 4 3 3 3 3 2 2 2 5 10 5 4 5 4 5 4 4 4 5 7 9 11 10 11 12 14 16 12 10 9 10 14 10 8 8 8 8 8 8 7
3 3 4 4 4 4 4 3 3 2 2 2 6 8 10 2 4 3 4 5 4 4 5 4 8 10 10 14 15 15 17 15 13 10 10 11 13 10 8 9 9 9 8 7 7
4 4 4 4 4 4 4 3 3 3 2 3 4 9 7 6 4 4 5 5 5 6 7 8 11 12 14 15 17 16 16 14 14 11 11 12 12 11 9 9 9 9 9 8 8
5 5 5 5 4 4 6 7 8 8 7 8 8 9 7 4 4 7 6 6 6 8 12 11 13 15 13 12 12 12 13 14 12 10 12 12 12 11 10 10 10 9 9 9 8
4 5 5 5 6 5 8 9 7 8 10 6 6 7 5 4 6 5 6 9 10 12 11 13 14 11 10 11 11 12 13 13 11 10 12 12 12 11 10 10 10 9 9 9 9
6 5 5 5 6 8 9 8 6 7 11 9 7 7 7 6 7 6 7 9 10 12 12 14 11 9 10 11 12 12 13 13 12 11 11 12 14 12 10 9 8 9 8 8 8
6 6 6 7 8 8 9 6 6 8 14 11 9 7 6 6 9 5 6 8 11 12 12 13 10 11 11 12 11 14 11 11 12 14 16 12 17 14 12 11 9 8 9 9 8
6 6 6 7 11 10 7 6 7 8 18 9 9 6 7 9 9 8 7 8 11 11 12 13 12 12 13 12 11 12 10 11 12 14 17 16 18 16 13 13 11 9 8 8 8
6 6 7 8 9 8 7 7 8 13 18 10 10 10 11 10 10 9 9 8 9 12 12 12 10 11 12 10 11 10 13 14 15 17 20 16 16 17 15 13 11 10 8 7 7
5 5 7 8 11 9 8 9 14 16 10 12 11 10 12 12 12 11 11 13 14 16 16 13 13 11 10 12 11 12 15 19 20 20 19 14 16 16 13 10 10 9 8 7 8
6 7 8 8 9 8 8 12 17 13 12 10 11 11 13 11 12 11 12 14 12 14 16 17 17 11 9 11 14 14 14 17 21 21 18 14 18 14 10 9 8 8 8 7 8
6 9 9 8 8 9 10 16 16 12 10 11 11 14 14 12 13 13 13 13 12 12 16 16 15 11 10 9 10 13 15 13 16 16 20 17 14 11 10 9 8 8 7 7 8
8 10 9 6 8 8 12 15 12 10 10 10 15 13 15 14 14 14 14 11 11 10 12 14 17 12 10 9 9 11 10 16 16 21 22 19 17 16 12 11 9 8 8 7 7
10 11 7 5 6 10 14 13 11 9 10 11 13 14 14 14 14 14 13 11 10 10 11 13 15 15 12 12 13 13 13 13 14 16 21 21 18 12 11 10 10 8 7 7 6
10 12 7 5 10 12 13 11 10 10 9 10 10 12 14 13 14 14 13 12 10 11 13 12 15 17 14 11 10 12 13 13 18 18 16 18 17 9 9 8 8 8 7 6 6
11 11 6 6 12 13 12 11 10 10 10 10 11 11 11 13 16 13 11 9 11 12 12 13 16 19 17 15 13 14 12 12 13 14 17 19 16 9 8 8 8 8 7 7 6
11 12 9 9 10 12 12 12 12 9 9 9 11 10 12 13 12 14 13 11 10 11 9 11 15 16 18 16 14 13 12 11 13 19 16 16 14 11 10 10 9 8 7 7 6
8 9 9 13 11 11 10 11 12 12 10 10 11 11 12 15 14 14 12 12 11 9 12 14 16 15 14 12 11 12 12 12 13 13 16 13 13 11 11 10 9 8 7 7 6
8 9 8 9 9 11 10 11 11 11 11 12 12 11 11 13 13 14 13 14 14 12 15 16 19 17 16 13 13 13 12 12 12 11 12 12 13 9 8 8 8 7 7 7 7
7 6 8 9 9 10 10 10 10 10 10 10 11 11 12 11 10 11 12 12 12 13 15 17 18 18 18 13 13 16 13 12 12 12 12 15 13 9 10 9 8 7 7 7 6